Time,TemperatureF,DewpointF,PressureIn,WindDirection,WindDirectionDegrees,WindSpeedMPH,WindSpeedGustMPH,Humidity,HourlyPrecipIn,Conditions,Clouds,dailyrainin,SoftwareType,DateUTC
2013-05-16 00:02:00,64.5,50.7,29.71,NNE,16,3.0,4.0,61,0.00,,,0.00,Wunderground v.1.15,2013-05-16 05:02:00,
2013-05-16 00:03:00,64.5,50.7,29.71,NNE,16,3.0,4.0,61,0.00,,,0.00,Wunderground v.1.15,2013-05-16 05:03:00,
2013-05-16 00:04:00,64.5,51.2,29.71,NNE,16,3.0,4.0,62,0.00,,,0.00,Wunderground v.1.15,2013-05-16 05:04:00,
2013-05-16 00:06:00,64.4,51.1,29.71,NNE,16,3.0,4.0,62,0.00,,,0.00,Wunderground v.1.15,2013-05-16 05:06:00,
2013-05-16 00:09:00,64.3,51.0,29.72,NNE,16,3.0,4.0,62,0.00,,,0.00,Wunderground v.1.15,2013-05-16 05:09:00,
2013-05-16 00:10:00,64.3,51.0,29.71,NNE,16,3.0,3.0,62,0.00,,,0.00,Wunderground v.1.15,2013-05-16 05:10:00,
2013-05-16 00:11:00,64.3,51.0,29.71,NNE,16,3.0,3.0,62,0.00,,,0.00,Wunderground v.1.15,2013-05-16 05:11:00,
2013-05-16 00:13:00,64.3,51.0,29.71,NNE,16,3.0,3.0,62,0.00,,,0.00,Wunderground v.1.15,2013-05-16 05:13:00,
2013-05-16 00:14:00,64.3,51.4,29.71,NNE,16,3.0,3.0,63,0.00,,,0.00,Wunderground v.1.15,2013-05-16 05:14:00,
2013-05-16 00:16:00,64.3,51.4,29.71,NNE,16,2.0,3.0,63,0.00,,,0.00,Wunderground v.1.15,2013-05-16 05:16:00,
2013-05-16 00:18:00,64.2,51.3,29.71,NNE,16,2.0,3.0,63,0.00,,,0.00,Wunderground v.1.15,2013-05-16 05:18:00,
2013-05-16 00:20:00,64.2,51.3,29.71,NNE,16,1.0,1.0,63,0.00,,,0.00,Wunderground v.1.15,2013-05-16 05:20:00,
2013-05-16 00:21:00,64.2,51.3,29.72,NNE,16,1.0,1.0,63,0.00,,,0.00,Wunderground v.1.15,2013-05-16 05:21:00,
2013-05-16 00:24:00,64.2,51.3,29.72,NNE,16,0.0,1.0,63,0.00,,,0.00,Wunderground v.1.15,2013-05-16 05:24:00,
2013-05-16 00:26:00,64.2,50.9,29.72,NNE,16,0.0,1.0,62,0.00,,,0.00,Wunderground v.1.15,2013-05-16 05:26:00,
2013-05-16 00:27:00,64.3,51.0,29.72,NNE,16,0.0,1.0,62,0.00,,,0.00,Wunderground v.1.15,2013-05-16 05:27:00,
2013-05-16 00:29:00,64.3,51.0,29.72,NNE,16,0.0,1.0,62,0.00,,,0.00,Wunderground v.1.15,2013-05-16 05:29:00,
2013-05-16 00:30:00,64.3,51.0,29.72,NNE,16,0.0,0.0,62,0.00,,,0.00,Wunderground v.1.15,2013-05-16 05:30:00,
2013-05-16 00:33:00,64.4,51.5,29.72,NNE,16,0.0,0.0,63,0.00,,,0.00,Wunderground v.1.15,2013-05-16 05:33:00,
2013-05-16 00:35:00,64.3,51.4,29.72,NNE,16,0.0,0.0,63,0.00,,,0.00,Wunderground v.1.15,2013-05-16 05:35:00,
2013-05-16 00:36:00,64.3,51.4,29.73,NNE,16,0.0,0.0,63,0.00,,,0.00,Wunderground v.1.15,2013-05-16 05:36:00,
2013-05-16 00:39:00,64.3,50.6,29.73,NNE,16,0.0,0.0,61,0.00,,,0.00,Wunderground v.1.15,2013-05-16 05:39:00,
2013-05-16 00:40:00,64.3,50.6,29.73,NNE,16,0.0,0.0,61,0.00,,,0.00,Wunderground v.1.15,2013-05-16 05:40:00,
2013-05-16 00:43:00,64.5,50.7,29.73,NNE,16,0.0,1.0,61,0.00,,,0.00,Wunderground v.1.15,2013-05-16 05:43:00,
2013-05-16 00:44:00,64.5,50.3,29.73,NNE,16,0.0,2.0,60,0.00,,,0.00,Wunderground v.1.15,2013-05-16 05:44:00,
2013-05-16 00:45:00,64.7,50.9,29.73,NNE,16,0.0,3.0,61,0.00,,,0.00,Wunderground v.1.15,2013-05-16 05:45:00,
2013-05-16 00:46:00,64.8,50.6,29.73,NNE,16,1.0,3.0,60,0.00,,,0.00,Wunderground v.1.15,2013-05-16 05:46:00,
2013-05-16 00:47:00,64.9,50.7,29.73,NNE,16,1.0,3.0,60,0.00,,,0.00,Wunderground v.1.15,2013-05-16 05:47:00,
2013-05-16 00:50:00,65.2,50.5,29.73,NNE,16,2.0,4.0,59,0.00,,,0.00,Wunderground v.1.15,2013-05-16 05:50:00,
2013-05-16 00:51:00,65.4,50.7,29.73,NNE,16,2.0,4.0,59,0.00,,,0.00,Wunderground v.1.15,2013-05-16 05:51:00,
2013-05-16 00:52:00,65.5,50.8,29.73,NNE,16,3.0,4.0,59,0.00,,,0.00,Wunderground v.1.15,2013-05-16 05:52:00,
2013-05-16 00:57:00,65.9,50.2,29.73,NNE,16,4.0,4.0,57,0.00,,,0.00,Wunderground v.1.15,2013-05-16 05:57:00,
2013-05-16 00:58:00,66.0,50.3,29.73,NNE,16,4.0,4.0,57,0.00,,,0.00,Wunderground v.1.15,2013-05-16 05:58:00,
2013-05-16 00:59:00,66.1,50.4,29.73,NNE,16,4.0,4.0,57,0.00,,,0.00,Wunderground v.1.15,2013-05-16 05:59:00,
2013-05-16 01:00:00,66.2,50.0,29.74,NNE,16,4.0,4.0,56,0.00,,,0.00,Wunderground v.1.15,2013-05-16 06:00:00,
2013-05-16 01:02:00,66.4,50.2,29.73,NNE,16,4.0,4.0,56,0.00,,,0.00,Wunderground v.1.15,2013-05-16 06:02:00,
2013-05-16 01:04:00,66.6,49.9,29.73,NNE,16,4.0,4.0,55,0.00,,,0.00,Wunderground v.1.15,2013-05-16 06:04:00,
2013-05-16 01:05:00,66.7,50.0,29.73,NNE,16,4.0,4.0,55,0.00,,,0.00,Wunderground v.1.15,2013-05-16 06:05:00,
2013-05-16 01:06:00,66.7,50.0,29.73,NNE,16,4.0,4.0,55,0.00,,,0.00,Wunderground v.1.15,2013-05-16 06:06:00,
2013-05-16 01:09:00,66.9,49.7,29.73,NNE,16,3.0,4.0,54,0.00,,,0.00,Wunderground v.1.15,2013-05-16 06:09:00,
2013-05-16 01:12:00,67.0,49.8,29.74,NNE,16,3.0,3.0,54,0.00,,,0.00,Wunderground v.1.15,2013-05-16 06:12:00,
2013-05-16 01:13:00,67.0,49.8,29.74,NNE,16,3.0,3.0,54,0.00,,,0.00,Wunderground v.1.15,2013-05-16 06:13:00,
2013-05-16 01:14:00,67.0,49.8,29.74,NNE,16,3.0,3.0,54,0.00,,,0.00,Wunderground v.1.15,2013-05-16 06:14:00,
2013-05-16 01:15:00,67.0,49.8,29.74,NNE,16,3.0,3.0,54,0.00,,,0.00,Wunderground v.1.15,2013-05-16 06:15:00,
2013-05-16 01:19:00,66.9,50.2,29.74,NNE,16,3.0,3.0,55,0.00,,,0.00,Wunderground v.1.15,2013-05-16 06:19:00,
2013-05-16 01:20:00,66.8,49.6,29.74,NNE,16,2.0,2.0,54,0.00,,,0.00,Wunderground v.1.15,2013-05-16 06:20:00,
2013-05-16 01:21:00,66.8,50.1,29.74,NNE,16,2.0,2.0,55,0.00,,,0.00,Wunderground v.1.15,2013-05-16 06:21:00,
2013-05-16 01:22:00,66.8,50.1,29.74,NNE,16,2.0,2.0,55,0.00,,,0.00,Wunderground v.1.15,2013-05-16 06:22:00,
2013-05-16 01:25:00,66.7,49.5,29.74,NNE,16,2.0,2.0,54,0.00,,,0.00,Wunderground v.1.15,2013-05-16 06:25:00,
2013-05-16 01:26:00,66.7,49.5,29.74,NNE,16,2.0,2.0,54,0.00,,,0.00,Wunderground v.1.15,2013-05-16 06:26:00,
2013-05-16 01:29:00,66.6,49.4,29.74,NNE,16,2.0,2.0,54,0.00,,,0.00,Wunderground v.1.15,2013-05-16 06:29:00,
2013-05-16 01:31:00,66.6,49.4,29.74,NNE,16,2.0,2.0,54,0.00,,,0.00,Wunderground v.1.15,2013-05-16 06:31:00,
2013-05-16 01:32:00,66.6,49.4,29.75,NNE,16,2.0,2.0,54,0.00,,,0.00,Wunderground v.1.15,2013-05-16 06:32:00,
2013-05-16 01:33:00,66.6,49.9,29.74,NNE,16,2.0,2.0,55,0.00,,,0.00,Wunderground v.1.15,2013-05-16 06:33:00,
2013-05-16 01:34:00,66.6,49.4,29.74,NNE,23,2.0,-999.0,54,0.00,,,0.00,Wunderground v.1.15,2013-05-16 06:34:00,
2013-05-16 01:36:00,66.5,49.3,29.74,NNE,16,2.0,2.0,54,0.00,,,0.00,Wunderground v.1.15,2013-05-16 06:36:00,
2013-05-16 01:37:00,66.5,49.3,29.74,NNE,16,2.0,3.0,54,0.00,,,0.00,Wunderground v.1.15,2013-05-16 06:37:00,
2013-05-16 01:38:00,66.5,49.8,29.74,NNE,16,2.0,3.0,55,0.00,,,0.00,Wunderground v.1.15,2013-05-16 06:38:00,
2013-05-16 01:39:00,66.6,49.4,29.75,NNE,23,1.0,-999.0,54,0.00,,,0.00,Wunderground v.1.15,2013-05-16 06:39:00,
2013-05-16 01:41:00,66.4,49.7,29.74,NNE,16,2.0,3.0,55,0.00,,,0.00,Wunderground v.1.15,2013-05-16 06:41:00,
2013-05-16 01:44:00,66.3,49.6,29.74,NNE,16,3.0,3.0,55,0.00,,,0.00,Wunderground v.1.15,2013-05-16 06:44:00,
2013-05-16 01:45:00,66.2,49.6,29.74,NNE,16,3.0,3.0,55,0.00,,,0.00,Wunderground v.1.15,2013-05-16 06:45:00,
2013-05-16 01:47:00,66.2,49.6,29.74,NNE,16,2.0,3.0,55,0.00,,,0.00,Wunderground v.1.15,2013-05-16 06:47:00,
2013-05-16 01:48:00,66.2,49.6,29.74,NNE,16,2.0,3.0,55,0.00,,,0.00,Wunderground v.1.15,2013-05-16 06:48:00,
2013-05-16 01:49:00,66.2,49.6,29.74,NNE,23,2.0,-999.0,55,0.00,,,0.00,Wunderground v.1.15,2013-05-16 06:49:00,
2013-05-16 01:50:00,66.2,50.0,29.75,NNE,16,1.0,1.0,56,0.00,,,0.00,Wunderground v.1.15,2013-05-16 06:50:00,
2013-05-16 01:54:00,66.1,50.4,29.75,NNE,16,1.0,1.0,57,0.00,,,0.00,Wunderground v.1.15,2013-05-16 06:54:00,
2013-05-16 01:55:00,66.1,50.4,29.75,NNE,16,0.0,1.0,57,0.00,,,0.00,Wunderground v.1.15,2013-05-16 06:55:00,
2013-05-16 01:57:00,66.1,50.4,29.75,NNE,16,0.0,1.0,57,0.00,,,0.00,Wunderground v.1.15,2013-05-16 06:57:00,
2013-05-16 01:59:00,66.0,50.3,29.75,NNE,16,0.0,1.0,57,0.00,,,0.00,Wunderground v.1.15,2013-05-16 06:59:00,
2013-05-16 02:01:00,66.0,49.8,29.75,NNE,16,0.0,0.0,56,0.00,,,0.00,Wunderground v.1.15,2013-05-16 07:01:00,
2013-05-16 02:02:00,66.0,49.8,29.75,NNE,16,0.0,0.0,56,0.00,,,0.00,Wunderground v.1.15,2013-05-16 07:02:00,
2013-05-16 02:03:00,65.9,49.8,29.75,NNE,16,0.0,0.0,56,0.00,,,0.00,Wunderground v.1.15,2013-05-16 07:03:00,
2013-05-16 02:04:00,66.0,49.8,29.75,N/A,-737280,0.0,-999.0,56,0.00,,,0.00,Wunderground v.1.15,2013-05-16 07:04:00,
2013-05-16 02:06:00,65.9,49.8,29.75,NNE,16,0.0,0.0,56,0.00,,,0.00,Wunderground v.1.15,2013-05-16 07:06:00,
2013-05-16 02:09:00,65.8,50.1,29.76,NNE,16,0.0,4.0,57,0.00,,,0.00,Wunderground v.1.15,2013-05-16 07:09:00,
2013-05-16 02:10:00,65.7,50.0,29.76,West,269,0.0,7.0,57,0.00,,,0.00,Wunderground v.1.15,2013-05-16 07:10:00,
2013-05-16 02:12:00,65.0,51.7,29.78,SW,229,3.0,14.0,62,0.00,,,0.00,Wunderground v.1.15,2013-05-16 07:12:00,
2013-05-16 02:14:00,63.6,52.0,29.78,SW,221,6.0,19.0,66,0.00,,,0.00,Wunderground v.1.15,2013-05-16 07:14:00,
2013-05-16 02:18:00,62.9,51.8,29.78,SW,220,12.0,19.0,67,0.00,,,0.00,Wunderground v.1.15,2013-05-16 07:18:00,
2013-05-16 02:19:00,63.0,51.9,29.77,SW,217,13.0,19.0,67,0.00,,,0.00,Wunderground v.1.15,2013-05-16 07:19:00,
2013-05-16 02:20:00,63.1,52.0,29.77,SW,221,13.0,13.0,67,0.00,,,0.00,Wunderground v.1.15,2013-05-16 07:20:00,
2013-05-16 02:22:00,63.2,51.6,29.77,SW,231,13.0,13.0,66,0.00,,,0.00,Wunderground v.1.15,2013-05-16 07:22:00,
2013-05-16 02:23:00,63.4,51.8,29.77,SW,232,13.0,13.0,66,0.00,,,0.00,Wunderground v.1.15,2013-05-16 07:23:00,
2013-05-16 02:24:00,63.1,52.0,29.77,SW,225,12.0,-999.0,67,0.00,,,0.00,Wunderground v.1.15,2013-05-16 07:24:00,
2013-05-16 02:26:00,64.0,51.1,29.77,SW,236,9.0,13.0,63,0.00,,,0.00,Wunderground v.1.15,2013-05-16 07:26:00,
2013-05-16 02:28:00,64.5,50.7,29.77,SW,233,8.0,13.0,61,0.00,,,0.00,Wunderground v.1.15,2013-05-16 07:28:00,
2013-05-16 02:29:00,63.8,51.8,29.77,SW,225,9.0,-999.0,65,0.00,,,0.00,Wunderground v.1.15,2013-05-16 07:29:00,
2013-05-16 02:32:00,65.2,51.4,29.77,SW,231,6.0,7.0,61,0.00,,,0.00,Wunderground v.1.15,2013-05-16 07:32:00,
2013-05-16 02:33:00,65.3,51.5,29.77,SW,230,6.0,7.0,61,0.00,,,0.00,Wunderground v.1.15,2013-05-16 07:33:00,
2013-05-16 02:34:00,64.8,51.0,29.77,SW,225,5.0,-999.0,61,0.00,,,0.00,Wunderground v.1.15,2013-05-16 07:34:00,
2013-05-16 02:35:00,65.3,51.9,29.77,SW,230,5.0,7.0,62,0.00,,,0.00,Wunderground v.1.15,2013-05-16 07:35:00,
2013-05-16 02:36:00,65.3,51.9,29.77,SW,229,5.0,7.0,62,0.00,,,0.00,Wunderground v.1.15,2013-05-16 07:36:00,
2013-05-16 02:38:00,65.2,51.8,29.77,SW,229,4.0,7.0,62,0.00,,,0.00,Wunderground v.1.15,2013-05-16 07:38:00,
2013-05-16 02:39:00,65.3,51.9,29.77,SW,225,5.0,-999.0,62,0.00,,,0.00,Wunderground v.1.15,2013-05-16 07:39:00,
2013-05-16 02:40:00,65.0,51.7,29.77,SW,229,3.0,3.0,62,0.00,,,0.00,Wunderground v.1.15,2013-05-16 07:40:00,
2013-05-16 02:41:00,65.0,52.1,29.77,SW,229,2.0,3.0,63,0.00,,,0.00,Wunderground v.1.15,2013-05-16 07:41:00,
2013-05-16 02:44:00,64.8,51.9,29.77,SW,229,1.0,3.0,63,0.00,,,0.00,Wunderground v.1.15,2013-05-16 07:44:00,
2013-05-16 02:46:00,64.7,51.8,29.77,SW,229,1.0,3.0,63,0.00,,,0.00,Wunderground v.1.15,2013-05-16 07:46:00,
2013-05-16 02:48:00,64.6,51.7,29.77,SW,229,0.0,3.0,63,0.00,,,0.00,Wunderground v.1.15,2013-05-16 07:48:00,
2013-05-16 02:49:00,64.6,51.7,29.77,SW,229,0.0,3.0,63,0.00,,,0.00,Wunderground v.1.15,2013-05-16 07:49:00,
2013-05-16 02:51:00,64.6,51.7,29.77,SW,229,0.0,0.0,63,0.00,,,0.00,Wunderground v.1.15,2013-05-16 07:51:00,
2013-05-16 02:54:00,64.5,52.5,29.77,SW,229,0.0,2.0,65,0.00,,,0.00,Wunderground v.1.15,2013-05-16 07:54:00,
2013-05-16 02:55:00,64.5,52.5,29.77,SW,229,0.0,2.0,65,0.00,,,0.00,Wunderground v.1.15,2013-05-16 07:55:00,
2013-05-16 02:57:00,64.3,51.9,29.77,SW,229,0.0,2.0,64,0.00,,,0.00,Wunderground v.1.15,2013-05-16 07:57:00,
2013-05-16 02:59:00,64.5,52.5,29.77,SW,225,1.0,-999.0,65,0.00,,,0.00,Wunderground v.1.15,2013-05-16 07:59:00,
2013-05-16 03:01:00,64.2,51.3,29.76,SW,229,0.0,0.0,63,0.00,,,0.00,Wunderground v.1.15,2013-05-16 08:01:00,
2013-05-16 03:03:00,64.3,51.9,29.76,SW,229,0.0,0.0,64,0.00,,,0.00,Wunderground v.1.15,2013-05-16 08:03:00,
2013-05-16 03:04:00,64.2,51.3,29.76,N/A,-737280,0.0,-999.0,63,0.00,,,0.00,Wunderground v.1.15,2013-05-16 08:04:00,
2013-05-16 03:05:00,64.3,51.9,29.76,SW,229,0.0,0.0,64,0.00,,,0.00,Wunderground v.1.15,2013-05-16 08:05:00,
2013-05-16 03:07:00,64.2,51.3,29.76,SW,229,0.0,1.0,63,0.00,,,0.00,Wunderground v.1.15,2013-05-16 08:07:00,
2013-05-16 03:09:00,64.3,51.4,29.76,SW,229,0.0,1.0,63,0.00,,,0.00,Wunderground v.1.15,2013-05-16 08:09:00,
2013-05-16 03:11:00,64.4,51.5,29.76,SW,229,0.0,0.0,63,0.00,,,0.00,Wunderground v.1.15,2013-05-16 08:11:00,
2013-05-16 03:13:00,64.4,51.1,29.76,SW,229,0.0,0.0,62,0.00,,,0.00,Wunderground v.1.15,2013-05-16 08:13:00,
2013-05-16 03:14:00,64.3,51.4,29.76,SW,225,0.0,-999.0,63,0.00,,,0.00,Wunderground v.1.15,2013-05-16 08:14:00,
2013-05-16 03:15:00,64.5,51.6,29.77,SW,229,0.0,0.0,63,0.00,,,0.00,Wunderground v.1.15,2013-05-16 08:15:00,
2013-05-16 03:16:00,64.5,52.0,29.77,SW,229,0.0,0.0,64,0.00,,,0.00,Wunderground v.1.15,2013-05-16 08:16:00,
2013-05-16 03:18:00,64.5,51.6,29.77,SW,229,0.0,0.0,63,0.00,,,0.00,Wunderground v.1.15,2013-05-16 08:18:00,
2013-05-16 03:19:00,64.5,51.2,29.77,SW,229,0.0,0.0,62,0.00,,,0.00,Wunderground v.1.15,2013-05-16 08:19:00,
2013-05-16 03:21:00,64.5,50.7,29.77,SW,229,0.0,0.0,61,0.00,,,0.00,Wunderground v.1.15,2013-05-16 08:21:00,
2013-05-16 03:24:00,64.5,51.2,29.77,N/A,-737280,0.0,-999.0,62,0.00,,,0.00,Wunderground v.1.15,2013-05-16 08:24:00,
2013-05-16 03:29:00,64.5,50.7,29.77,N/A,-737280,0.0,-999.0,61,0.00,,,0.00,Wunderground v.1.15,2013-05-16 08:29:00,
2013-05-16 03:34:00,64.6,51.3,29.76,SW,225,0.0,-999.0,62,0.00,,,0.00,Wunderground v.1.15,2013-05-16 08:34:00,
2013-05-16 03:39:00,64.4,50.7,29.76,SW,225,0.0,-999.0,61,0.00,,,0.00,Wunderground v.1.15,2013-05-16 08:39:00,
2013-05-16 03:44:00,64.4,52.4,29.76,SW,225,0.0,-999.0,65,0.00,,,0.00,Wunderground v.1.15,2013-05-16 08:44:00,
2013-05-16 03:49:00,64.0,52.0,29.76,N/A,-737280,0.0,-999.0,65,0.00,,,0.00,Wunderground v.1.15,2013-05-16 08:49:00,
2013-05-16 03:54:00,63.5,52.3,29.76,SW,225,0.0,-999.0,67,0.00,,,0.00,Wunderground v.1.15,2013-05-16 08:54:00,
2013-05-16 03:59:00,63.1,52.4,29.75,SW,225,0.0,-999.0,68,0.00,,,0.00,Wunderground v.1.15,2013-05-16 08:59:00,
2013-05-16 04:04:00,62.8,52.9,29.76,SW,225,1.0,-999.0,70,0.00,,,0.00,Wunderground v.1.15,2013-05-16 09:04:00,
2013-05-16 04:09:00,62.4,52.9,29.75,SW,225,2.0,-999.0,71,0.00,,,0.00,Wunderground v.1.15,2013-05-16 09:09:00,
2013-05-16 04:14:00,61.9,52.4,29.75,SW,225,3.0,-999.0,71,0.00,,,0.00,Wunderground v.1.15,2013-05-16 09:14:00,
2013-05-16 04:19:00,61.6,52.9,29.74,SW,225,2.0,-999.0,73,0.00,,,0.00,Wunderground v.1.15,2013-05-16 09:19:00,
2013-05-16 04:24:00,61.3,52.9,29.74,NNE,23,6.0,-999.0,74,0.00,,,0.00,Wunderground v.1.15,2013-05-16 09:24:00,
2013-05-16 04:29:00,61.2,52.5,29.74,NNE,23,9.0,-999.0,73,0.00,,,0.00,Wunderground v.1.15,2013-05-16 09:29:00,
2013-05-16 04:34:00,61.3,52.2,29.73,NNE,23,11.0,-999.0,72,0.00,,,0.00,Wunderground v.1.15,2013-05-16 09:34:00,
2013-05-16 04:39:00,61.2,52.1,29.73,NNE,23,8.0,-999.0,72,0.00,,,0.00,Wunderground v.1.15,2013-05-16 09:39:00,
2013-05-16 04:44:00,61.0,52.3,29.73,NNE,23,6.0,-999.0,73,0.00,,,0.00,Wunderground v.1.15,2013-05-16 09:44:00,
2013-05-16 04:49:00,60.7,52.0,29.74,NNE,23,5.0,-999.0,73,0.00,,,0.00,Wunderground v.1.15,2013-05-16 09:49:00,
2013-05-16 04:54:00,60.5,51.8,29.75,NNE,23,4.0,-999.0,73,0.00,,,0.00,Wunderground v.1.15,2013-05-16 09:54:00,
2013-05-16 04:59:00,60.4,52.1,29.74,NNE,23,2.0,-999.0,74,0.00,,,0.00,Wunderground v.1.15,2013-05-16 09:59:00,
2013-05-16 05:04:00,60.3,52.3,29.74,NNE,23,2.0,-999.0,75,0.00,,,0.00,Wunderground v.1.15,2013-05-16 10:04:00,
2013-05-16 05:09:00,60.1,52.5,29.74,NNE,23,0.0,-999.0,76,0.00,,,0.00,Wunderground v.1.15,2013-05-16 10:09:00,
2013-05-16 05:14:00,60.0,52.8,29.74,NNE,23,0.0,-999.0,77,0.00,,,0.00,Wunderground v.1.15,2013-05-16 10:14:00,
2013-05-16 05:19:00,59.8,52.2,29.74,NNE,23,0.0,-999.0,76,0.00,,,0.00,Wunderground v.1.15,2013-05-16 10:19:00,
2013-05-16 05:24:00,59.8,51.9,29.74,NNE,23,2.0,-999.0,75,0.00,,,0.00,Wunderground v.1.15,2013-05-16 10:24:00,
2013-05-16 05:29:00,60.0,51.7,29.74,NNE,23,1.0,-999.0,74,0.00,,,0.00,Wunderground v.1.15,2013-05-16 10:29:00,
2013-05-16 05:34:00,60.3,51.6,29.75,NNE,23,0.0,-999.0,73,0.00,,,0.00,Wunderground v.1.15,2013-05-16 10:34:00,
2013-05-16 05:39:00,60.5,51.8,29.75,NNE,23,0.0,-999.0,73,0.00,,,0.00,Wunderground v.1.15,2013-05-16 10:39:00,
2013-05-16 05:44:00,60.4,52.4,29.76,NNE,23,0.0,-999.0,75,0.00,,,0.00,Wunderground v.1.15,2013-05-16 10:44:00,
2013-05-16 05:49:00,60.3,52.7,29.76,NNE,23,0.0,-999.0,76,0.00,,,0.00,Wunderground v.1.15,2013-05-16 10:49:00,
2013-05-16 05:54:00,60.2,53.3,29.77,NNE,23,0.0,-999.0,78,0.00,,,0.00,Wunderground v.1.15,2013-05-16 10:54:00,
2013-05-16 05:59:00,59.8,54.0,29.77,NNE,23,1.0,-999.0,81,0.00,,,0.00,Wunderground v.1.15,2013-05-16 10:59:00,
2013-05-16 06:04:00,59.5,54.3,29.78,ENE,68,3.0,-999.0,83,0.00,,,0.00,Wunderground v.1.15,2013-05-16 11:04:00,
2013-05-16 06:09:00,59.2,54.0,29.79,ESE,113,5.0,-999.0,83,0.00,,,0.00,Wunderground v.1.15,2013-05-16 11:09:00,
2013-05-16 08:01:00,65.5,55.1,29.81,SSE,151,2.0,2.0,69,0.00,,,0.00,Wunderground v.1.15,2013-05-16 13:01:00,
2013-05-16 08:02:00,65.5,55.1,29.81,SSE,151,2.0,2.0,69,0.00,,,0.00,Wunderground v.1.15,2013-05-16 13:02:00,
2013-05-16 08:04:00,65.6,54.3,29.81,SSE,151,1.0,2.0,67,0.00,,,0.00,Wunderground v.1.15,2013-05-16 13:04:00,
2013-05-16 08:05:00,65.8,54.5,29.82,SSE,151,1.0,2.0,67,0.00,,,0.00,Wunderground v.1.15,2013-05-16 13:05:00,
2013-05-16 08:07:00,65.8,53.7,29.81,SSE,151,1.0,2.0,65,0.00,,,0.00,Wunderground v.1.15,2013-05-16 13:07:00,